STARLINK-32082 (60346 NORAD) Tracking and Keplerian Element Data

This shows tracking and keplerian element data for the satellite.

Feedback or suggestion? Click here.




ElementValue
Catalog60346
NameSTARLINK-32082
Epoch Orbit1113
Epoch Day286.75267726
Epoch Year2024
RAAN298.0531
Inclination53.1614
Eccentricity0.0001621
Argument of Perigee94.902
Mean Anonmoly265.2166
Mean Motion15.30220816
Decay Rate-5E-06
L11 60346U 24136T 24286.75267726 -.00000500 00000+0 -47296-5 0 9998
L22 60346 53.1614 298.0531 0001621 94.9020 265.2166 15.30220816 11135



Live tracking and technical data element details for STARLINK-32082 (NORAD 60346). STARLINK-32082 can be tracked NOW for your location showing map with azimuth and elevation plus other details from your city location.







IsCatalogInMostPopularTable: catalog: 60346, numindb: 8
Update: records affected: 1



GetName: 60346 STARLINK-32082

Hit Count: updated at: Wed, 04 Dec 2024 18:07:25 GMT